Date String (YYYY-MM-DD hh:mm:ss) UTC,Instrument flags,absolute air pressure of the measurement (hPa),sample flow rate (lpm),inlet stack bypass flow (lpm),air temperature of the measurement (°C),ambient temperature measured by the external sensor (°C),aerosol sample conditioner tube jacket temperature (°C),OPC LED temperature (°C),internal box temperature (°C),relative humidity of the measurement (%),span deviation,mass concentration of particles derived from Lorenz-Mie calculation of OPC scattering (μg/m³),mass concentration of particles derived from Lorenz-Mie calculation of OPC scattering (μg/m³),mass concentration of particles derived from Lorenz-Mie calculation of OPC scattering (μg/m³)
DateTimeUTC,F1_M11,P_M11,Q1_M11,Q2_M11,T1_M11,T2_M11,T3_M11,T4_M11,T5_M11,U1_M11,ZSPAN_M11,X2_M11,X0_M11,X1_M11
2023-08-11 17:00:00,SystemResetWarning,0831.3,4.98,000.00,028.9,026.7,000.0,037.1,030.5,25.9,0000.0,0004.62,0010.25,0004.01
2023-08-11 17:01:00,SystemResetWarning,0831.3,5.01,000.00,028.8,025.3,000.0,037.0,030.2,25.8,0000.0,0004.63,0009.73,0004.01
2023-08-11 17:02:00,SystemResetWarning,0831.3,4.99,000.00,028.7,025.0,000.0,036.9,030.1,26.3,0000.0,0004.62,0009.51,0004.00
2023-08-11 17:03:00,SystemResetWarning,0831.3,5.01,000.00,028.7,025.3,000.0,036.9,030.1,25.4,0000.0,0004.65,0009.85,0004.00
2023-08-11 17:04:00,SystemResetWarning,0831.4,5.00,000.00,028.7,025.7,000.0,037.0,030.1,26.0,0000.0,0004.67,0009.85,0003.99
2023-08-11 17:05:00,SystemResetWarning,0831.3,5.00,000.00,028.7,026.2,000.0,037.0,030.3,26.0,0000.0,0004.69,0009.92,0003.98
2023-08-11 17:06:00,SystemResetWarning,0831.3,5.00,000.00,028.7,026.5,000.0,037.1,030.4,26.4,0000.0,0004.67,0009.98,0003.97
2023-08-11 17:07:00,SystemResetWarning,0831.4,5.00,000.00,028.8,026.9,000.0,037.1,030.5,25.7,0000.0,0004.65,0009.92,0003.95
2023-08-11 17:08:00,SystemResetWarning,0831.4,5.00,000.00,028.8,027.2,000.0,037.1,030.6,26.0,0000.0,0004.61,0009.78,0003.93
2023-08-11 17:09:00,SystemResetWarning,0831.4,5.00,000.00,028.9,027.3,000.0,037.1,030.6,25.6,0000.0,0004.61,0009.24,0003.93
2023-08-11 17:10:00,SystemResetWarning,0831.4,4.99,000.00,028.8,026.1,000.0,037.0,030.3,25.0,0000.0,0004.62,0008.90,0003.92
2023-08-11 17:11:00,SystemResetWarning,0831.3,5.01,000.00,028.8,025.0,000.0,036.9,030.1,25.3,0000.0,0004.63,0008.95,0003.92
2023-08-11 17:12:00,SystemResetWarning,0831.3,5.01,000.00,028.7,025.2,000.0,036.9,030.1,25.0,0000.0,0004.61,0009.12,0003.91
2023-08-11 17:13:00,SystemResetWarning,0831.3,5.00,000.00,028.7,025.5,000.0,036.9,030.1,24.7,0000.0,0004.58,0010.19,0003.91
2023-08-11 17:14:00,SystemResetWarning,0831.4,5.00,000.00,028.7,025.9,000.0,037.0,030.2,25.1,0000.0,0004.56,0010.54,0003.90
2023-08-11 17:15:00,SystemResetWarning,0831.4,5.00,000.00,028.7,026.3,000.0,037.0,030.3,25.0,0000.0,0004.52,0010.43,0003.88
2023-08-11 17:16:00,SystemResetWarning,0831.3,5.01,000.00,028.7,026.7,000.0,037.1,030.4,25.0,0000.0,0004.46,0010.22,0003.86
2023-08-11 17:17:00,SystemResetWarning,0831.4,5.00,000.00,028.8,027.1,000.0,037.1,030.6,24.8,0000.0,0004.42,0010.05,0003.85
2023-08-11 17:18:00,SystemResetWarning,0831.3,5.00,000.00,028.8,027.3,000.0,037.1,030.6,24.6,0000.0,0004.42,0010.34,0003.85
2023-08-11 17:19:00,SystemResetWarning,0831.3,4.98,000.00,028.8,026.2,000.0,037.0,030.4,25.2,0000.0,0004.41,0011.07,0003.85
2023-08-11 17:20:00,SystemResetWarning,0831.4,5.01,000.00,028.7,025.0,000.0,036.9,030.1,26.5,0000.0,0004.40,0011.17,0003.85
2023-08-11 17:21:00,SystemResetWarning,0831.3,5.01,000.00,028.7,025.2,000.0,036.8,030.0,26.3,0000.0,0004.35,0011.77,0003.83
2023-08-11 17:22:00,SystemResetWarning,0831.4,4.99,000.00,028.6,025.5,000.0,036.9,030.1,26.0,0000.0,0004.27,0011.59,0003.80
2023-08-11 17:23:00,SystemResetWarning,0831.3,5.01,000.00,028.6,025.9,000.0,036.9,030.2,25.6,0000.0,0004.25,0011.04,0003.79
2023-08-11 17:24:00,SystemResetWarning,0831.3,5.00,000.00,028.7,026.4,000.0,037.0,030.3,25.2,0000.0,0004.22,0010.69,0003.76
2023-08-11 17:25:00,SystemResetWarning,0831.3,4.98,000.00,028.7,026.7,000.0,037.0,030.4,24.7,0000.0,0004.20,0009.62,0003.74
2023-08-11 17:26:00,SystemResetWarning,0831.3,5.00,000.00,028.7,027.1,000.0,037.1,030.5,24.1,0000.0,0004.18,0009.49,0003.72
2023-08-11 17:27:00,SystemResetWarning,0831.3,5.00,000.00,028.8,026.8,000.0,037.0,030.5,24.0,0000.0,0004.17,0009.51,0003.68
2023-08-11 17:28:00,SystemResetWarning,0831.3,5.00,000.00,028.7,025.4,000.0,036.9,030.2,24.4,0000.0,0004.18,0009.59,0003.67
2023-08-11 17:29:00,SystemResetWarning,0831.3,5.01,000.00,028.6,024.9,000.0,036.8,030.0,24.4,0000.0,0004.16,0009.44,0003.64
2023-08-11 17:30:00,SystemResetWarning,0831.3,5.01,000.00,028.6,025.2,000.0,036.8,030.0,24.4,0000.0,0004.14,0008.91,0003.61
2023-08-11 17:31:00,SystemResetWarning,0831.3,4.99,000.00,028.6,025.6,000.0,036.9,030.0,24.6,0000.0,0004.12,0008.82,0003.59
2023-08-11 17:32:00,SystemResetWarning,0831.3,5.00,000.00,028.6,026.0,000.0,036.9,030.1,25.6,0000.0,0004.09,0008.09,0003.56
2023-08-11 17:33:00,SystemResetWarning,0831.3,4.99,000.00,028.6,026.4,000.0,036.9,030.3,25.0,0000.0,0004.08,0008.20,0003.55
2023-08-11 17:34:00,SystemResetWarning,0831.3,5.00,000.00,028.6,026.8,000.0,037.0,030.4,23.4,0000.0,0004.08,0008.46,0003.54
2023-08-11 17:35:00,SystemResetWarning,0831.3,5.00,000.00,028.7,027.1,000.0,037.0,030.5,23.6,0000.0,0004.07,0008.32,0003.53
2023-08-11 17:36:00,SystemResetWarning,0831.3,4.98,000.00,028.7,026.9,000.0,037.0,030.5,23.0,0000.0,0004.04,0008.23,0003.53
2023-08-11 17:37:00,SystemResetWarning,0831.3,5.00,000.00,028.7,025.5,000.0,036.9,030.2,22.8,0000.0,0004.05,0008.53,0003.53
2023-08-11 17:38:00,SystemResetWarning,0831.3,5.01,000.00,028.6,024.8,000.0,036.8,030.0,23.5,0000.0,0004.04,0009.03,0003.54
2023-08-11 17:39:00,SystemResetWarning,0831.3,5.01,000.00,028.6,025.2,000.0,036.8,030.0,23.5,0000.0,0004.01,0009.01,0003.53
2023-08-11 17:40:00,SystemResetWarning,0831.3,4.99,000.00,028.6,025.6,000.0,036.8,030.0,24.0,0000.0,0004.01,0009.27,0003.55
2023-08-11 17:41:00,SystemResetWarning,0831.3,5.00,000.00,028.6,026.0,000.0,036.9,030.1,24.6,0000.0,0004.03,0009.33,0003.56
2023-08-11 17:42:00,SystemResetWarning,0831.3,5.00,000.00,028.6,026.4,000.0,036.9,030.2,24.1,0000.0,0004.05,0009.38,0003.57
2023-08-11 17:43:00,SystemResetWarning,0831.3,5.00,000.00,028.6,026.8,000.0,036.9,030.4,23.7,0000.0,0004.08,0010.31,0003.57
2023-08-11 17:44:00,SystemResetWarning,0831.3,4.99,000.00,028.7,027.1,000.0,037.0,030.5,23.7,0000.0,0004.11,0010.67,0003.58
2023-08-11 17:45:00,SystemResetWarning,0831.3,4.99,000.00,028.7,027.0,000.0,037.0,030.5,25.5,0000.0,0004.12,0010.91,0003.58
2023-08-11 17:46:00,SystemResetWarning,0831.3,4.99,000.00,028.7,025.6,000.0,036.9,030.2,23.8,0000.0,0004.13,0011.11,0003.59
2023-08-11 17:47:00,SystemResetWarning,0831.3,5.03,000.00,028.6,024.9,000.0,036.8,030.0,23.3,0000.0,0004.13,0011.01,0003.59
2023-08-11 17:48:00,SystemResetWarning,0831.3,4.99,000.00,028.6,025.3,000.0,036.8,030.0,22.7,0000.0,0004.11,0010.83,0003.59
2023-08-11 17:49:00,SystemResetWarning,0831.3,5.00,000.00,028.5,025.6,000.0,036.8,030.0,22.7,0000.0,0004.10,0010.27,0003.59
2023-08-11 17:50:00,SystemResetWarning,0831.3,5.00,000.00,028.6,026.0,000.0,036.8,030.1,23.1,0000.0,0004.12,0010.19,0003.60
2023-08-11 17:51:00,SystemResetWarning,0831.3,5.00,000.00,028.6,026.5,000.0,036.9,030.2,23.0,0000.0,0004.10,0010.04,0003.60
2023-08-11 17:52:00,SystemResetWarning,0831.2,4.99,000.00,028.6,026.8,000.0,036.9,030.3,22.8,0000.0,0004.12,0009.53,0003.60
2023-08-11 17:53:00,SystemResetWarning,0831.3,5.00,000.00,028.7,027.1,000.0,037.0,030.4,23.0,0000.0,0004.11,0010.14,0003.60
2023-08-11 17:54:00,SystemResetWarning,0831.3,4.99,000.00,028.7,026.3,000.0,036.9,030.3,22.2,0000.0,0004.08,0009.62,0003.60
2023-08-11 17:55:00,SystemResetWarning,0831.2,5.01,000.00,028.6,024.9,000.0,036.8,030.0,21.8,0000.0,0004.06,0009.05,0003.60
2023-08-11 17:56:00,SystemResetWarning,0831.2,5.01,000.00,028.6,024.9,000.0,036.7,029.9,22.0,0000.0,0004.10,0008.89,0003.59
2023-08-11 17:57:00,SystemResetWarning,0831.2,5.00,000.00,028.5,025.3,000.0,036.8,029.9,21.7,0000.0,0004.11,0008.62,0003.58
2023-08-11 17:58:00,SystemResetWarning,0831.2,4.99,000.00,028.5,025.7,000.0,036.8,030.0,21.2,0000.0,0004.15,0008.73,0003.58
2023-08-11 17:59:00,SystemResetWarning,0831.3,5.00,000.00,028.5,026.2,000.0,036.8,030.1,21.4,0000.0,0004.15,0008.71,0003.57
